This is the latest recevied weather packets stored in our database for station/object 5B4APJ-13. If no packets are shown the sender has not sent any weather packets the latest 10 day(s).
| Time | Temp. | Humidity | Pressure | Rain* | Wind** | Luminosity | Snow |
|---|---|---|---|---|---|---|---|
| 1777846326 | 11.67° C | 67% | 1008.8 hPa | 0 mm | 3.58 m/s, 217° | 0 W/m² | - |
| 1777846026 | 11.67° C | 68% | 1008.7 hPa | 0 mm | 3.58 m/s, 270° | 0 W/m² | - |
| 1777845726 | 11.67° C | 67% | 1008.9 hPa | 0 mm | 5.81 m/s, 235° | 0 W/m² | - |
| 1777845426 | 11.67° C | 67% | 1008.8 hPa | 0 mm | 4.02 m/s, 256° | 0 W/m² | - |
| 1777845127 | 11.67° C | 67% | 1008.8 hPa | 0 mm | 4.92 m/s, 244° | 0 W/m² | - |
| 1777844826 | 11.11° C | 67% | 1009 hPa | 0 mm | 4.02 m/s, 242° | 0 W/m² | - |
| 1777844526 | 11.11° C | 67% | 1008.8 hPa | 0 mm | 2.24 m/s, 206° | 0 W/m² | - |
| 1777844226 | 11.11° C | 67% | 1009.2 hPa | 0 mm | 4.02 m/s, 241° | 0 W/m² | - |
| 1777843927 | 11.11° C | 68% | 1009 hPa | 0 mm | 3.58 m/s, 244° | 0 W/m² | - |
| 1777843626 | 11.11° C | 68% | 1009 hPa | 0 mm | 3.13 m/s, 233° | 0 W/m² | - |
| 1777843326 | 11.11° C | 67% | 1009.3 hPa | 0 mm | 4.02 m/s, 186° | 0 W/m² | - |
| 1777843026 | 11.67° C | 66% | 1009.3 hPa | 0 mm | 4.02 m/s, 226° | 0 W/m² | - |
| 1777842726 | 12.22° C | 62% | 1009.4 hPa | 0 mm | 2.68 m/s, 246° | 0 W/m² | - |
| 1777842427 | 12.22° C | 62% | 1009.4 hPa | 0 mm | 2.24 m/s, 227° | 0 W/m² | - |
| 1777842126 | 12.22° C | 63% | 1009.4 hPa | 0 mm | 1.34 m/s, 181° | 0 W/m² | - |
| 1777841826 | 12.22° C | 64% | 1009.2 hPa | 0 mm | 3.13 m/s, 220° | 0 W/m² | - |
| 1777841527 | 12.22° C | 65% | 1009 hPa | 0 mm | 2.68 m/s, 249° | 0 W/m² | - |
| 1777841226 | 12.22° C | 65% | 1009.2 hPa | 0 mm | 1.79 m/s, 246° | 0 W/m² | - |
| 1777840927 | 12.22° C | 65% | 1009 hPa | 0 mm | 1.79 m/s, 172° | 0 W/m² | - |
| 1777840627 | 12.22° C | 65% | 1009.4 hPa | 0 mm | 1.79 m/s, 229° | 0 W/m² | - |
| 1777840326 | 11.67° C | 67% | 1009.3 hPa | 0 mm | 1.79 m/s, 241° | 0 W/m² | - |
| 1777840027 | 11.67° C | 68% | 1009.2 hPa | 0 mm | 0.45 m/s, 249° | 0 W/m² | - |
| 1777839726 | 12.22° C | 67% | 1009.3 hPa | 0 mm | 0.89 m/s, 152° | 0 W/m² | - |
| 1777839427 | 12.22° C | 67% | 1009.2 hPa | 0 mm | 1.79 m/s, 241° | 0 W/m² | - |
| 1777839127 | 12.22° C | 67% | 1009.5 hPa | 0 mm | 1.34 m/s, 208° | 0 W/m² | - |
* Rain latest hour (hover to see other rain measurements)
** Current wind speed in m/s (hover to see current wind gust speed)